This is the latest recevied weather packets stored in our database for station/object HG6IQI-10. If no packets are shown the sender has not sent any weather packets the latest 10 day(s).
| Time | Temp. | Humidity | Pressure | Rain* | Wind** | Luminosity | Snow |
|---|---|---|---|---|---|---|---|
| 1777130281 | 18.89° C | 35% | 1012.3 hPa | - | - | - | - |
| 1777129380 | 18.89° C | 36% | 1012.1 hPa | - | - | - | - |
| 1777128480 | 19.44° C | 35% | 1012.2 hPa | - | - | - | - |
| 1777127580 | 19.44° C | 36% | 1012.3 hPa | - | - | - | - |
| 1777126680 | 18.89° C | 35% | 1012.4 hPa | - | - | - | - |
| 1777125780 | 18.89° C | 36% | 1012.3 hPa | - | - | - | - |
| 1777124880 | 19.44° C | 36% | 1012.5 hPa | - | - | - | - |
| 1777123979 | 18.89° C | 36% | 1012.5 hPa | - | - | - | - |
| 1777123079 | 18.89° C | 37% | 1012.8 hPa | - | - | - | - |
| 1777122179 | 18.89° C | 36% | 1013 hPa | - | - | - | - |
| 1777121279 | 18.89° C | 36% | 1013.1 hPa | - | - | - | - |
| 1777120379 | 18.89° C | 36% | 1013.3 hPa | - | - | - | - |
| 1777119479 | 18.33° C | 37% | 1013.3 hPa | - | - | - | - |
| 1777118579 | 17.78° C | 37% | 1013.6 hPa | - | - | - | - |
| 1777117679 | 18.33° C | 35% | 1013.6 hPa | - | - | - | - |
| 1777116778 | 17.78° C | 37% | 1013.8 hPa | - | - | - | - |
| 1777115878 | 17.78° C | 38% | 1013.8 hPa | - | - | - | - |
| 1777114978 | 17.78° C | 38% | 1013.8 hPa | - | - | - | - |
| 1777114078 | 17.78° C | 38% | 1014 hPa | - | - | - | - |
| 1777113178 | 17.78° C | 38% | 1014.1 hPa | - | - | - | - |
| 1777111380 | 17.22° C | 40% | 1014.4 hPa | - | - | - | - |
| 1777110479 | 17.22° C | 39% | 1014.3 hPa | - | - | - | - |
| 1777109579 | 16.67° C | 39% | 1014.5 hPa | - | - | - | - |
| 1777108679 | 16.11° C | 41% | 1014.6 hPa | - | - | - | - |
| 1777107779 | 15.56° C | 42% | 1014.9 hPa | - | - | - | - |
* Rain since midnight (hover to see other rain measurements)
** Current wind speed in m/s (hover to see current wind gust speed)